Orbital Elements at Epoch 2459200.5 (2020-Dec-17.0) TDB
Reference: JPL 31 (heliocentric ecliptic J2000)
Element | Value | Uncertainty (1-sigma) | Units |
e | .06828182933172283 | 3.4442e-08 | |
a | 3.128615249145244 | 2.0398e-08 | au |
q | 2.914987676658483 | 1.0269e-07 | au |
i | 21.78523624848284 | 5.8308e-06 | deg |
node | 209.2088850007072 | 9.3731e-06 | deg |
peri | 110.3818964634176 | 4.3618e-05 | deg |
M | 70.87335364531008 | 4.1693e-05 | deg |
tp | 2458802.569574482427 (2019-Nov-15.06957448) | 0.00023373 | TDB |
period | 2021.280859704401 5.53 | 1.9768e-05 5.412e-08 | d yr |
n | .1781048874388726 | 1.7419e-09 | deg/d |
Q | 3.342242821632005 | 2.1791e-08 | au |
|
| | Orbit Determination Parameters
Additional Information
|